Voltar ao catálogo

THORAD DELTA 1 DEB

AtivoLEO
NORAD 9989·DEBRIS·🇺🇸 United States

Lançado Nov 15, 1974 de Vandenberg Space Force Base

Loading…

Próximas Passagens (próximas 24 horas)

TLE

AtualizadoSource: Space-Track

Época: Sep 14, 2026, 06:41 UTC

1 09989U 74089EG  26257.27867959  .00000785  00000-0  53639-2 0  9996
2 09989 103.0572 182.9885 0137752 204.9064 309.8782 12.49303716312623

Acompanhe THORAD DELTA 1 DEB em tempo real com AllMySat

Download on the App Store